User: anonymous   Login
Location: Unspecified
(0.0000°N, 0.0000°E)
Time: 23:53:00
(UTC+00:00)
Language:

SENTINEL 2B - Orbit

View from above orbital plane
View from above orbital plane
View from above satellite
View from above satellite

Ground track
Ground track

The orbit data is extracted from the following two-line orbital elements,

1 42063U 17013A   18294.75293234  .00000014  00000-0  22000-4 0  9999
2 42063  98.5698   7.6375 0001118  89.0462 271.0846 14.30816749 84902
Epoch (UTC): 21 October 2018 18:04:13
Eccentricity: 0.0001118
inclination: 98.5698°
perigee height: 788 km
apogee height: 790 km
right ascension of ascending node: 7.6375°
argument of perigee: 89.0462°
revolutions per day: 14.30816749
mean anomaly at epoch: 271.0846°
orbit number at epoch: 8490

The dashed part of the orbit path shows where the satellite is in the earth's shadow,  

DLR